| time (UTC) | temp F | wind direction | speed MPH | gust MPH | rain 1hr in | rain 24hr in | rain mn in | humidity % | barometer mb |
| 20260504202041 | 71 | 201 | 9.0 | 15.0 | 0.00 | 0.00 | 0.00 | 44 | 1015.4 |
| 20260504201537 | 71 | 195 | 9.0 | 15.0 | 0.00 | 0.00 | 0.00 | 46 | 1015.4 |
| 20260504201035 | 71 | 175 | 9.0 | 14.0 | 0.00 | 0.00 | 0.00 | 45 | 1015.4 |
| 20260504200534 | 71 | 212 | 9.0 | 14.0 | 0.00 | 0.00 | 0.00 | 44 | 1015.5 |
| 20260504200034 | 71 | 188 | 10.0 | 14.0 | 0.00 | 0.00 | 0.00 | 46 | 1015.5 |
| 20260504195531 | 70 | 202 | 9.0 | 15.0 | 0.00 | 0.00 | 0.00 | 46 | 1015.6 |
| 20260504195032 | 70 | 200 | 10.0 | 15.0 | 0.00 | 0.00 | 0.00 | 49 | 1015.6 |
| 20260504194531 | 70 | 164 | 9.0 | 14.0 | 0.00 | 0.00 | 0.00 | 45 | 1015.7 |
| 20260504194030 | 70 | 202 | 10.0 | 13.0 | 0.00 | 0.00 | 0.00 | 47 | 1015.8 |
| 20260504193530 | 70 | 174 | 8.0 | 15.0 | 0.00 | 0.00 | 0.00 | 45 | 1015.8 |
| 20260504193029 | 70 | 186 | 8.0 | 15.0 | 0.00 | 0.00 | 0.00 | 46 | 1016.0 |
| 20260504192527 | 69 | 195 | 9.0 | 14.0 | 0.00 | 0.00 | 0.00 | 49 | 1016.0 |
| 20260504192027 | 69 | 191 | 11.0 | 14.0 | 0.00 | 0.00 | 0.00 | 53 | 1016.1 |
| 20260504191526 | 69 | 202 | 10.0 | 15.0 | 0.00 | 0.00 | 0.00 | 46 | 1016.3 |
| 20260504191025 | 69 | 192 | 9.0 | 15.0 | 0.00 | 0.00 | 0.00 | 47 | 1016.4 |
| 20260504190524 | 69 | 193 | 9.0 | 15.0 | 0.00 | 0.00 | 0.00 | 49 | 1016.4 |
| 20260504190023 | 69 | 202 | 9.0 | 15.0 | 0.00 | 0.00 | 0.00 | 49 | 1016.5 |
| 20260504185521 | 69 | 176 | 11.0 | 17.0 | 0.00 | 0.00 | 0.00 | 48 | 1016.6 |
| 20260504185021 | 69 | 199 | 10.0 | 17.0 | 0.00 | 0.00 | 0.00 | 46 | 1016.6 |
| 20260504184519 | 68 | 203 | 10.0 | 15.0 | 0.00 | 0.00 | 0.00 | 48 | 1016.6 |
| 20260504184019 | 68 | 209 | 10.0 | 18.0 | 0.00 | 0.00 | 0.00 | 48 | 1016.7 |
| 20260504183518 | 68 | 193 | 10.0 | 18.0 | 0.00 | 0.00 | 0.00 | 47 | 1016.8 |
| 20260504183018 | 68 | 198 | 12.0 | 16.0 | 0.00 | 0.00 | 0.00 | 46 | 1016.9 |
| 20260504182517 | 68 | 184 | 9.0 | 16.0 | 0.00 | 0.00 | 0.00 | 45 | 1016.9 |
| 20260504182016 | 68 | 208 | 7.0 | 17.0 | 0.00 | 0.00 | 0.00 | 45 | 1017.0 |
| 20260504181516 | 68 | 195 | 10.0 | 16.0 | 0.00 | 0.00 | 0.00 | 46 | 1017.0 |
| 20260504181015 | 67 | 214 | 11.0 | 15.0 | 0.00 | 0.00 | 0.00 | 47 | 1017.0 |
| 20260504180514 | 67 | 190 | 11.0 | 15.0 | 0.00 | 0.00 | 0.00 | 46 | 1017.1 |
| 20260504180016 | 67 | 157 | 9.0 | 16.0 | 0.00 | 0.00 | 0.00 | 46 | 1017.2 |
| 20260504175511 | 67 | 197 | 9.0 | 16.0 | 0.00 | 0.00 | 0.00 | 46 | 1017.3 |
| 20260504175011 | 67 | 173 | 8.0 | 15.0 | 0.00 | 0.00 | 0.00 | 46 | 1017.3 |
| 20260504174509 | 66 | 199 | 11.0 | 14.0 | 0.00 | 0.00 | 0.00 | 48 | 1017.4 |
| 20260504174008 | 66 | 207 | 11.0 | 14.0 | 0.00 | 0.00 | 0.00 | 48 | 1017.5 |
| 20260504173508 | 66 | 191 | 10.0 | 12.0 | 0.00 | 0.00 | 0.00 | 49 | 1017.5 |
| 20260504173006 | 66 | 205 | 8.0 | 12.0 | 0.00 | 0.00 | 0.00 | 51 | 1017.4 |
| 20260504172505 | 65 | 201 | 7.0 | 10.0 | 0.00 | 0.00 | 0.00 | 51 | 1017.3 |
| 20260504172004 | 65 | 210 | 7.0 | 10.0 | 0.00 | 0.00 | 0.00 | 54 | 1017.5 |
| 20260504171504 | 65 | 208 | 8.0 | 9.0 | 0.00 | 0.00 | 0.00 | 51 | 1017.5 |
| 20260504171003 | 65 | 209 | 7.0 | 11.0 | 0.00 | 0.00 | 0.00 | 48 | 1017.5 |
| 20260504170503 | 65 | 198 | 7.0 | 11.0 | 0.00 | 0.00 | 0.00 | 50 | 1017.5 |
| 20260504151038 | 58 | 212 | 7.0 | 9.0 | 0.00 | 0.00 | 0.00 | 71 | 1019.2 |
| 20260504150534 | 58 | 193 | 5.0 | 8.0 | 0.00 | 0.00 | 0.00 | 71 | 1019.2 |
| 20260504141025 | 57 | 225 | 9.0 | 11.0 | 0.00 | 0.00 | 0.00 | 67 | 1019.3 |
| 20260504140524 | 57 | 220 | 10.0 | 11.0 | 0.00 | 0.00 | 0.00 | 67 | 1019.2 |
| 20260504130517 | 57 | 174 | 9.0 | 13.0 | 0.00 | 0.00 | 0.00 | 69 | 1019.6 |
| 20260504110508 | 56 | 203 | 13.0 | 19.0 | 0.00 | 0.00 | 0.00 | 73 | 1020.1 |
| 20260504100604 | 56 | 205 | 14.0 | 18.0 | 0.00 | 0.00 | 0.00 | 71 | 1020.0 |
| 20260504100107 | 57 | 214 | 11.0 | 16.0 | 0.00 | 0.00 | 0.00 | 75 | 1020.2 |
| 20260504090104 | 57 | 212 | 9.0 | 15.0 | 0.00 | 0.00 | 0.00 | 72 | 1020.0 |
| 20260504081550 | 57 | 198 | 8.0 | 17.0 | 0.00 | 0.00 | 0.00 | 77 | 1020.0 |
| 20260504081049 | 57 | 160 | 7.0 | 16.0 | 0.00 | 0.00 | 0.00 | 78 | 1019.9 |
| 20260504080548 | 57 | 193 | 8.0 | 12.0 | 0.00 | 0.00 | 0.00 | 79 | 1019.9 |
| 20260504050525 | 54 | 122 | 0.0 | 6.0 | 0.00 | 0.00 | 0.00 | 74 | 1020.2 |
| 20260504050025 | 55 | 108 | 1.0 | 8.0 | 0.00 | 0.00 | 0.00 | 72 | 1020.3 |
| 20260504045524 | 56 | 146 | 3.0 | 11.0 | 0.00 | 0.00 | 0.00 | 72 | 1020.4 |
| 20260504045024 | 56 | 212 | 6.0 | 12.0 | 0.00 | 0.00 | 0.00 | 72 | 1020.3 |
| 20260504044534 | 57 | 206 | 10.0 | 12.0 | 0.00 | 0.00 | 0.00 | 72 | 1020.3 |
| 20260504044022 | 57 | 173 | 6.0 | 13.0 | 0.00 | 0.00 | 0.00 | 72 | 1020.4 |
| 20260504043521 | 56 | 223 | 9.0 | 13.0 | 0.00 | 0.00 | 0.00 | 72 | 1020.4 |
| 20260504043023 | 55 | 214 | 6.0 | 10.0 | 0.00 | 0.00 | 0.00 | 76 | 1020.4 |
| 20260504042518 | 55 | 203 | 4.0 | 8.0 | 0.00 | 0.00 | 0.00 | 75 | 1020.3 |
| 20260504042019 | 55 | 200 | 4.0 | 8.0 | 0.00 | 0.00 | 0.00 | 75 | 1020.4 |
| 20260504041517 | 55 | 156 | 4.0 | 8.0 | 0.00 | 0.00 | 0.00 | 73 | 1020.4 |
| 20260504041016 | 55 | 152 | 3.0 | 8.0 | 0.00 | 0.00 | 0.00 | 73 | 1020.4 |
| 20260504040519 | 54 | 188 | 5.0 | 8.0 | 0.00 | 0.00 | 0.00 | 73 | 1020.3 |
| 20260504040013 | 54 | 205 | 3.0 | 7.0 | 0.00 | 0.00 | 0.00 | 73 | 1020.3 |
| 20260504035513 | 53 | 134 | 2.0 | 7.0 | 0.00 | 0.00 | 0.00 | 73 | 1020.3 |
| 20260504035012 | 53 | 198 | 2.0 | 6.0 | 0.00 | 0.00 | 0.00 | 74 | 1020.2 |
| 20260504034514 | 53 | 193 | 1.0 | 5.0 | 0.00 | 0.00 | 0.00 | 73 | 1020.2 |
| 20260504034012 | 54 | 148 | 2.0 | 5.0 | 0.00 | 0.00 | 0.00 | 74 | 1020.1 |
| 20260504033512 | 53 | 113 | 1.0 | 4.0 | 0.00 | 0.00 | 0.00 | 73 | 1020.1 |
| 20260504033012 | 53 | 136 | 1.0 | 3.0 | 0.00 | 0.00 | 0.00 | 74 | 1020.1 |
| 20260504032512 | 52 | 181 | 0.0 | 2.0 | 0.00 | 0.00 | 0.00 | 75 | 1020.0 |
| 20260504032014 | 53 | 100 | 0.0 | 2.0 | 0.00 | 0.00 | 0.00 | 75 | 1019.9 |
| 20260504031512 | 53 | 99 | 0.0 | 4.0 | 0.00 | 0.00 | 0.00 | 74 | 1019.9 |
| 20260504031012 | 53 | 134 | 0.0 | 4.0 | 0.00 | 0.00 | 0.00 | 73 | 1019.9 |
| 20260504030510 | 53 | 121 | 0.0 | 3.0 | 0.00 | 0.00 | 0.00 | 73 | 1019.8 |
| 20260504030010 | 53 | 91 | 0.0 | 4.0 | 0.00 | 0.00 | 0.00 | 72 | 1019.8 |
| 20260504025510 | 53 | 154 | 1.0 | 4.0 | 0.00 | 0.00 | 0.00 | 72 | 1019.9 |
| 20260504025013 | 53 | 116 | 1.0 | 2.0 | 0.00 | 0.00 | 0.00 | 72 | 1019.9 |
| 20260504024511 | 52 | 104 | 0.0 | 2.0 | 0.00 | 0.00 | 0.00 | 72 | 1019.8 |
| 20260504024012 | 52 | 98 | 0.0 | 2.0 | 0.00 | 0.00 | 0.00 | 73 | 1019.8 |
| 20260504023510 | 53 | 103 | 0.0 | 2.0 | 0.00 | 0.00 | 0.00 | 73 | 1019.8 |
| 20260504023010 | 53 | 96 | 0.0 | 3.0 | 0.00 | 0.00 | 0.00 | 72 | 1019.9 |
| 20260504022512 | 53 | 151 | 0.0 | 3.0 | 0.00 | 0.00 | 0.00 | 72 | 1019.9 |
| 20260504022009 | 53 | 143 | 1.0 | 3.0 | 0.00 | 0.00 | 0.00 | 72 | 1019.9 |
| 20260504021511 | 53 | 110 | 0.0 | 2.0 | 0.00 | 0.00 | 0.00 | 72 | 1019.9 |
| 20260504021009 | 54 | 96 | 0.0 | 3.0 | 0.00 | 0.00 | 0.00 | 71 | 1019.9 |
| 20260504020508 | 54 | 100 | 1.0 | 3.0 | 0.00 | 0.00 | 0.00 | 71 | 1019.9 |
| 20260504020015 | 55 | 122 | 2.0 | 6.0 | 0.00 | 0.00 | 0.00 | 70 | 1019.9 |
| 20260504015508 | 56 | 165 | 1.0 | 6.0 | 0.00 | 0.00 | 0.00 | 69 | 1019.8 |
| 20260504015007 | 56 | 134 | 2.0 | 5.0 | 0.00 | 0.00 | 0.00 | 71 | 1019.8 |
| 20260504014507 | 56 | 210 | 1.0 | 6.0 | 0.00 | 0.00 | 0.00 | 68 | 1019.7 |
| 20260504014006 | 57 | 195 | 2.0 | 6.0 | 0.00 | 0.00 | 0.00 | 65 | 1019.7 |
| 20260504013506 | 59 | 231 | 2.0 | 5.0 | 0.00 | 0.00 | 0.00 | 66 | 1019.6 |
| 20260504013010 | 59 | 224 | 3.0 | 5.0 | 0.00 | 0.00 | 0.00 | 67 | 1019.7 |
| 20260504012511 | 59 | 231 | 3.0 | 5.0 | 0.00 | 0.00 | 0.00 | 65 | 1019.6 |
| 20260504012006 | 59 | 239 | 3.0 | 6.0 | 0.00 | 0.00 | 0.00 | 63 | 1019.5 |
| 20260504011507 | 59 | 248 | 3.0 | 7.0 | 0.00 | 0.00 | 0.00 | 61 | 1019.5 |
| 20260504011009 | 59 | 243 | 5.0 | 7.0 | 0.00 | 0.00 | 0.00 | 61 | 1019.5 |
| 20260504010507 | 59 | 243 | 4.0 | 6.0 | 0.00 | 0.00 | 0.00 | 63 | 1019.5 |
| 20260504010005 | 59 | 242 | 4.0 | 6.0 | 0.00 | 0.00 | 0.00 | 61 | 1019.5 |
| 20260504005504 | 60 | 239 | 4.0 | 6.0 | 0.00 | 0.00 | 0.00 | 65 | 1019.5 |
| 20260504005005 | 60 | 249 | 5.0 | 6.0 | 0.00 | 0.00 | 0.00 | 57 | 1019.5 |
| 20260504004504 | 60 | 262 | 4.0 | 6.0 | 0.00 | 0.00 | 0.00 | 55 | 1019.5 |
| 20260504004004 | 60 | 262 | 4.0 | 6.0 | 0.00 | 0.00 | 0.00 | 54 | 1019.4 |
| 20260504003503 | 60 | 258 | 4.0 | 6.0 | 0.00 | 0.00 | 0.00 | 53 | 1019.3 |
| 20260504003003 | 60 | 254 | 4.0 | 7.0 | 0.00 | 0.00 | 0.00 | 55 | 1019.2 |
| 20260504002503 | 60 | 242 | 5.0 | 7.0 | 0.00 | 0.00 | 0.00 | 52 | 1019.2 |
| 20260504002003 | 60 | 257 | 6.0 | 7.0 | 0.00 | 0.00 | 0.00 | 51 | 1019.1 |
| 20260504001503 | 60 | 253 | 5.0 | 7.0 | 0.00 | 0.00 | 0.00 | 51 | 1019.0 |
| 20260504001006 | 60 | 257 | 5.0 | 8.0 | 0.00 | 0.00 | 0.00 | 54 | 1019.0 |
| 20260504000504 | 60 | 256 | 6.0 | 8.0 | 0.00 | 0.00 | 0.00 | 51 | 1019.0 |
| 20260504000002 | 60 | 250 | 5.0 | 7.0 | 0.00 | 0.00 | 0.00 | 55 | 1018.9 |
| 20260503235501 | 60 | 276 | 5.0 | 7.0 | 0.00 | 0.00 | 0.00 | 52 | 1018.8 |
| 20260503235001 | 60 | 271 | 5.0 | 8.0 | 0.00 | 0.00 | 0.00 | 49 | 1018.7 |
| 20260503234503 | 60 | 272 | 6.0 | 8.0 | 0.00 | 0.00 | 0.00 | 47 | 1018.7 |
| 20260503234001 | 61 | 285 | 5.0 | 8.0 | 0.00 | 0.00 | 0.00 | 53 | 1018.6 |
| 20260503233502 | 61 | 283 | 5.0 | 8.0 | 0.00 | 0.00 | 0.00 | 45 | 1018.6 |
| 20260503233106 | 61 | 281 | 5.0 | 8.0 | 0.00 | 0.00 | 0.00 | 44 | 1018.6 |
| 20260503232601 | 61 | 300 | 4.0 | 8.0 | 0.00 | 0.00 | 0.00 | 46 | 1018.6 |
| 20260503232100 | 61 | 287 | 6.0 | 9.0 | 0.00 | 0.00 | 0.00 | 50 | 1018.6 |
| 20260503231600 | 61 | 277 | 6.0 | 11.0 | 0.00 | 0.00 | 0.00 | 44 | 1018.6 |
| 20260503231103 | 61 | 276 | 7.0 | 11.0 | 0.00 | 0.00 | 0.00 | 42 | 1018.6 |
| 20260503230600 | 61 | 293 | 8.0 | 11.0 | 0.00 | 0.00 | 0.00 | 48 | 1018.7 |
| 20260503225558 | 61 | 299 | 6.0 | 11.0 | 0.00 | 0.00 | 0.00 | 48 | 1018.7 |
| 20260503225102 | 61 | 281 | 8.0 | 11.0 | 0.00 | 0.00 | 0.00 | 42 | 1018.6 |
| 20260503224558 | 61 | 288 | 8.0 | 13.0 | 0.00 | 0.00 | 0.00 | 45 | 1018.7 |
| 20260503224058 | 61 | 274 | 9.0 | 13.0 | 0.00 | 0.00 | 0.00 | 46 | 1018.8 |
| 20260503223557 | 60 | 288 | 9.0 | 14.0 | 0.00 | 0.00 | 0.00 | 40 | 1018.7 |
| 20260503223057 | 60 | 300 | 11.0 | 14.0 | 0.00 | 0.00 | 0.00 | 44 | 1018.5 |
| 20260503222556 | 60 | 295 | 9.0 | 13.0 | 0.00 | 0.00 | 0.00 | 47 | 1018.6 |
| 20260503222055 | 60 | 271 | 8.0 | 12.0 | 0.00 | 0.00 | 0.00 | 44 | 1018.6 |
| 20260503221555 | 60 | 275 | 7.0 | 10.0 | 0.00 | 0.00 | 0.00 | 46 | 1018.8 |
| 20260503221055 | 60 | 289 | 7.0 | 11.0 | 0.00 | 0.00 | 0.00 | 44 | 1018.8 |
| 20260503220555 | 60 | 263 | 7.0 | 11.0 | 0.00 | 0.00 | 0.00 | 49 | 1018.8 |
| 20260503220054 | 60 | 273 | 6.0 | 13.0 | 0.00 | 0.00 | 0.00 | 49 | 1018.8 |
| 20260503215554 | 60 | 283 | 9.0 | 14.0 | 0.00 | 0.00 | 0.00 | 47 | 1018.8 |
| 20260503215052 | 60 | 291 | 8.0 | 14.0 | 0.00 | 0.00 | 0.00 | 41 | 1018.7 |
| 20260503214601 | 60 | 283 | 12.0 | 14.0 | 0.00 | 0.00 | 0.00 | 45 | 1018.7 |
| 20260503214052 | 60 | 279 | 8.0 | 15.0 | 0.00 | 0.00 | 0.00 | 49 | 1018.7 |
| 20260503213551 | 59 | 293 | 9.0 | 11.0 | 0.00 | 0.00 | 0.00 | 46 | 1018.8 |
| 20260503213052 | 59 | 289 | 7.0 | 10.0 | 0.00 | 0.00 | 0.00 | 47 | 1018.8 |
| 20260503212550 | 59 | 284 | 7.0 | 11.0 | 0.00 | 0.00 | 0.00 | 50 | 1018.8 |
| 20260503212049 | 59 | 274 | 7.0 | 18.0 | 0.00 | 0.00 | 0.00 | 49 | 1018.7 |
| 20260503211554 | 59 | 285 | 10.0 | 18.0 | 0.00 | 0.00 | 0.00 | 44 | 1018.7 |
| 20260503211049 | 59 | 296 | 9.0 | 13.0 | 0.00 | 0.00 | 0.00 | 46 | 1018.7 |
| 20260503210548 | 59 | 287 | 10.0 | 13.0 | 0.00 | 0.00 | 0.00 | 48 | 1018.7 |
| 20260503210047 | 58 | 288 | 8.0 | 22.0 | 0.00 | 0.00 | 0.00 | 47 | 1018.7 |
| 20260503205547 | 58 | 310 | 12.0 | 22.0 | 0.00 | 0.00 | 0.00 | 49 | 1018.8 |
| 20260503205047 | 58 | 286 | 12.0 | 16.0 | 0.00 | 0.00 | 0.00 | 47 | 1018.8 |
| 20260503204554 | 58 | 284 | 13.0 | 16.0 | 0.00 | 0.00 | 0.00 | 49 | 1018.9 |
| 20260503204045 | 58 | 293 | 8.0 | 16.0 | 0.00 | 0.00 | 0.00 | 47 | 1018.9 |
| 20260503203544 | 58 | 284 | 11.0 | 16.0 | 0.00 | 0.00 | 0.00 | 47 | 1018.8 |
| 20260503203049 | 58 | 279 | 7.0 | 20.0 | 0.00 | 0.00 | 0.00 | 47 | 1019.0 |
| 20260503202543 | 57 | 302 | 9.0 | 20.0 | 0.00 | 0.00 | 0.00 | 45 | 1019.0 |